Middlesboro, KY

9:49 AM EDT on August 29, 2016 (GMT -0400)
Middlesboro

Weather History for K1A6 - March, 2014

Change the Weather History Date:

Saturday, March 29, 2014

  Actual Average (KLOZ) Record (KLOZ)
Temperature  
Mean Temperature 46 °F 51 °F  
Max Temperature 56 °F 63 °F 82 °F (1977)
Min Temperature 35 °F 39 °F 17 °F (1966)
Degree Days  
Heating Degree Days 19 14  
Month to date heating degree days 521  
Since 1 July heating degree days 3797  
Cooling Degree Days 0 0  
Month to date cooling degree days 0  
Year to date cooling degree days 0  
Moisture  
Dew Point 46 °F    
Average Humidity 93    
Maximum Humidity 100    
Minimum Humidity 83    
Precipitation  
Precipitation 0.96 in 0.13 in 1.74 in (2014)
Month to date precipitation 3.78  
Sea Level Pressure  
Sea Level Pressure 29.89 in    
Wind  
Wind Speed 3 mph (NW)    
Max Wind Speed 17 mph    
Max Gust Speed 31 mph    
Visibility 7 miles    
Events Rain , Thunderstorm    
T = Trace of Precipitation, MM = Missing Value Source: NWS Daily Summary

Daily Weather History Graph

Daily Weather History Graph

Search for Another Location

Airport or City:

Trip Planner

Search our weather history database for the weather conditions in past years. The results will help you decide how hot, cold, wet, or windy it might be!

Date:

Astronomy

Mar. 29, 2014 Rise Set
Actual Time 6:25 AM CDT 6:54 PM CDT
Civil Twilight 5:59 AM CDT 7:20 PM CDT
Nautical Twilight 5:28 AM CDT 7:51 PM CDT
Astronomical Twilight 4:57 AM CDT 8:22 PM CDT
Moon 5:31 AM CDT 5:59 PM CDT
Length of Visible Light 13h 21m
Length of Day
12h 29m
Waning Crescent, 2% of the Moon is Illuminated
Mar 29
Waning Crescent
Mar 30
New
Apr 7
First Quarter
Apr 15
Full
Apr 22
Last Quarter

Hourly Weather History & Observations

Time (CDT) Temp. Windchill Dew Point Humidity Pressure Visibility Wind Dir Wind Speed Gust Speed Precip Events Conditions
12:15 AM 53.1 °F - 51.1 °F 93% 30.04 in 10.0 mi Calm Calm - N/A   Overcast
12:35 AM 53.1 °F - 51.3 °F 94% 30.02 in 10.0 mi Calm Calm - N/A   Overcast
1:15 AM 52.2 °F - 50.9 °F 95% 30.01 in 10.0 mi Calm Calm - N/A   Overcast
1:35 AM 52.3 °F - 50.7 °F 94% 30.00 in 10.0 mi Calm Calm - N/A   Mostly Cloudy
1:55 AM 51.6 °F - 50.5 °F 96% 29.98 in 10.0 mi Calm Calm - N/A Rain Rain
2:15 AM 50.9 °F - 50.4 °F 98% 29.97 in 10.0 mi Calm Calm - N/A   Scattered Clouds
2:35 AM 50.0 °F - 49.6 °F 99% 29.96 in 10.0 mi West 3.5 mph - N/A   Clear
2:55 AM 49.5 °F - 49.5 °F 100% 29.95 in 10.0 mi Calm Calm - N/A   Scattered Clouds
3:15 AM 49.3 °F - 49.1 °F 99% 29.94 in 10.0 mi Calm Calm - N/A   Mostly Cloudy
3:35 AM 47.7 °F - 47.7 °F 100% 29.93 in 10.0 mi Calm Calm - N/A   Scattered Clouds
3:55 AM 46.6 °F - 46.6 °F 100% 29.92 in 4.0 mi Calm Calm - N/A   Clear
4:15 AM 47.1 °F - 47.1 °F 100% 29.92 in 7.0 mi Calm Calm - N/A   Scattered Clouds
4:35 AM 46.9 °F - 46.9 °F 100% 29.92 in 7.0 mi Calm Calm - N/A   Overcast
4:55 AM 47.3 °F - 47.3 °F 100% 29.90 in 10.0 mi Calm Calm - N/A   Overcast
5:15 AM 47.3 °F - 47.3 °F 100% 29.90 in 10.0 mi Calm Calm - N/A   Overcast
5:35 AM 47.1 °F - 47.1 °F 100% 29.89 in 10.0 mi Calm Calm - N/A   Overcast
5:55 AM 47.1 °F - 47.1 °F 100% 29.88 in 10.0 mi Calm Calm - N/A   Mostly Cloudy
6:15 AM 47.1 °F - 47.1 °F 100% 29.88 in 10.0 mi Calm Calm - N/A   Overcast
6:35 AM 48.0 °F - 48.0 °F 100% 29.88 in 10.0 mi Calm Calm - N/A   Overcast
6:55 AM 48.2 °F - 48.2 °F 100% 29.88 in 5.0 mi Calm Calm - N/A Rain Light Rain
7:15 AM 48.7 °F - 48.7 °F 100% 29.87 in 4.0 mi Calm Calm - 0.01 in Rain Heavy Rain
7:35 AM 49.3 °F - 49.3 °F 100% 29.86 in 4.0 mi Calm Calm - 0.01 in Rain Light Rain
7:55 AM 50.0 °F - 50.0 °F 100% 29.85 in 5.0 mi Calm Calm - 0.01 in   Overcast
8:15 AM 51.3 °F - 51.3 °F 100% 29.85 in 2.5 mi Calm Calm - 0.04 in Rain Rain
8:35 AM 51.8 °F - 51.8 °F 100% 29.85 in 1.5 mi West 3.5 mph - 0.10 in Rain Rain
8:55 AM 51.8 °F - 51.8 °F 100% 29.84 in 1.0 mi Calm Calm - 0.22 in Rain Rain
9:15 AM 52.9 °F - 52.9 °F 100% 29.83 in 1.5 mi Calm Calm - 0.08 in Rain Heavy Rain
9:35 AM 53.6 °F - 53.6 °F 100% 29.83 in 3.0 mi WNW 4.6 mph - 0.12 in Rain , Thunderstorm Rain
9:55 AM 53.6 °F - 53.6 °F 100% 29.82 in 7.0 mi Calm Calm - 0.12 in Rain Rain
10:15 AM 53.8 °F - 53.8 °F 100% 29.81 in 1.5 mi Calm Calm - 0.07 in Rain Rain
10:35 AM 54.1 °F - 54.1 °F 100% 29.80 in 2.5 mi Calm Calm - 0.10 in Rain Rain
10:55 AM 54.1 °F - 54.1 °F 100% 29.79 in 5.0 mi Calm Calm - 0.11 in   Overcast
11:15 AM 54.7 °F - 54.7 °F 100% 29.77 in 5.0 mi Calm Calm - N/A   Drizzle
11:35 AM 54.9 °F - 54.9 °F 100% 29.76 in 7.0 mi Calm Calm - N/A   Overcast
11:55 AM 55.2 °F - 55.2 °F 100% 29.75 in 7.0 mi Calm Calm - N/A   Overcast
12:15 PM 55.6 °F - 55.6 °F 100% 29.73 in 10.0 mi Calm Calm - N/A Rain Light Rain
12:35 PM 55.6 °F - 55.4 °F 99% 29.73 in 1.0 mi South 3.5 mph - 0.15 in Rain Heavy Rain
12:55 PM 55.6 °F - 55.6 °F 100% 29.73 in 1.2 mi Calm Calm - 0.28 in Rain Heavy Rain
1:15 PM 55.9 °F - 55.9 °F 100% 29.71 in 5.0 mi Calm Calm - 0.01 in Rain Light Rain
1:35 PM 56.3 °F - 56.3 °F 100% 29.71 in 5.0 mi Calm Calm - 0.03 in Rain Rain
1:55 PM 56.5 °F - 56.5 °F 100% 29.71 in 4.0 mi Calm Calm - 0.07 in Rain Heavy Rain
2:15 PM 51.8 °F - 48.0 °F 87% 29.75 in 10.0 mi West 15.0 mph 26.5 mph N/A Rain Light Rain
2:35 PM 48.4 °F - 44.2 °F 86% 29.77 in 10.0 mi WNW 12.7 mph 24.2 mph 0.01 in Rain Rain
2:55 PM 47.5 °F - 43.0 °F 84% 29.78 in 10.0 mi NW 5.8 mph - 0.01 in Rain Rain
3:15 PM 47.1 °F - 43.0 °F 86% 29.80 in 10.0 mi NW 11.5 mph 20.7 mph N/A   Drizzle
3:35 PM 46.4 °F 45.2 °F 42.1 °F 85% 29.80 in 10.0 mi North 3.5 mph - N/A   Drizzle
3:55 PM 46.0 °F 41.9 °F 42.1 °F 86% 29.81 in 10.0 mi North 8.1 mph 18.4 mph N/A Rain Light Rain
4:15 PM 45.5 °F 41.3 °F 41.5 °F 86% 29.82 in 10.0 mi NNW 8.1 mph - N/A Rain Rain
4:35 PM 44.8 °F 38.7 °F 41.2 °F 87% 29.84 in 10.0 mi NW 12.7 mph - 0.01 in   Drizzle
4:55 PM 44.1 °F 38.6 °F 39.7 °F 85% 29.85 in 10.0 mi NNW 10.4 mph 18.4 mph 0.01 in Rain Rain
5:15 PM 43.3 °F 36.8 °F 39.2 °F 85% 29.87 in 7.0 mi NW 12.7 mph 21.9 mph 0.01 in Rain Rain
5:35 PM 42.8 °F 37.5 °F 38.3 °F 84% 29.87 in 10.0 mi NW 9.2 mph - 0.02 in Rain Light Rain
5:55 PM 42.3 °F 34.8 °F 38.1 °F 85% 29.88 in 7.0 mi NW 15.0 mph 23.0 mph 0.03 in Rain Light Rain
6:15 PM 42.6 °F 36.8 °F 38.1 °F 84% 29.91 in 10.0 mi NW 10.4 mph 23.0 mph N/A Rain Rain
6:35 PM 41.9 °F 35.0 °F 37.4 °F 84% 29.92 in 10.0 mi NNW 12.7 mph 19.6 mph 0.01 in Rain Rain
6:55 PM 41.5 °F 35.0 °F 37.8 °F 86% 29.93 in 10.0 mi NW 11.5 mph 16.1 mph 0.01 in Rain Rain
7:15 PM 41.4 °F 35.2 °F 36.7 °F 83% 29.94 in 10.0 mi NW 10.4 mph 24.2 mph N/A Rain Light Rain
7:35 PM 41.2 °F 34.5 °F 36.7 °F 84% 29.96 in 10.0 mi NW 11.5 mph 18.4 mph 0.01 in Rain Light Rain
7:55 PM 40.6 °F 32.0 °F 36.1 °F 84% 29.97 in 7.0 mi NW 17.3 mph - 0.02 in Rain Rain
8:15 PM 40.1 °F 33.2 °F 35.8 °F 85% 29.99 in 7.0 mi North 11.5 mph 18.4 mph 0.01 in Rain Light Rain
8:35 PM 40.1 °F 33.6 °F 35.8 °F 85% 29.99 in 10.0 mi NNW 10.4 mph 18.4 mph 0.02 in Rain Light Rain
8:55 PM 39.6 °F 35.4 °F 35.8 °F 86% 30.00 in 7.0 mi NNW 5.8 mph 17.3 mph 0.03 in Rain Rain
9:15 PM 39.2 °F 31.2 °F 35.6 °F 87% 30.01 in 7.0 mi NW 13.8 mph 20.7 mph 0.01 in Rain Rain
9:35 PM 38.7 °F 29.8 °F 35.1 °F 87% 30.03 in 7.0 mi North 16.1 mph 31.1 mph 0.02 in Rain Light Rain
9:55 PM 37.9 °F 28.5 °F 34.0 °F 86% 30.03 in 7.0 mi NW 17.3 mph 23.0 mph 0.03 in Rain Light Rain
10:15 PM 37.8 °F 31.3 °F 34.0 °F 86% 30.03 in 7.0 mi North 9.2 mph 17.3 mph N/A Rain Light Rain
10:35 PM 37.6 °F 32.3 °F 34.5 °F 89% 30.04 in 7.0 mi NNE 6.9 mph - N/A Rain Light Rain
10:55 PM 37.4 °F 30.8 °F 34.0 °F 87% 30.05 in 7.0 mi NNW 9.2 mph - 0.01 in Rain Light Rain
11:15 PM 37.4 °F 29.8 °F 33.3 °F 85% 30.05 in 10.0 mi North 11.5 mph 29.9 mph N/A Rain Rain
11:35 PM 36.5 °F 29.7 °F 32.9 °F 87% 30.06 in 7.0 mi NW 9.2 mph 20.7 mph N/A Rain Light Rain
11:55 PM 35.8 °F 28.3 °F 32.0 °F 86% 30.07 in 7.0 mi NNW 10.4 mph 20.7 mph N/A Rain Light Rain